Location: Unspecified
(0.0000°N, 0.0000°E)
Time: 02:49:44
(UTC+01:00)

ATLAS V CENTAUR R/B - Visible Passes

Search period start: 26 October 2014 00:00
Search period end: 04 November 2014 23:00
Orbit: 237 x 30289 km, 17.8° (Epoch: 25 October)

Date Brightness Start Highest point End Pass type
(mag) Time Alt. Az. Time Alt. Az. Time Alt. Az.
26 Oct 8.8 00:22:09 25° ESE 00:22:09 25° ESE 06:32:19 10° E visible
27 Oct 8.1 01:46:00 75° SSE 01:46:00 75° SSE 09:29:53 10° E visible
28 Oct 7.9 04:09:32 33° WSW 11:43:34 86° SSE 12:05:17 10° ENE visible
30 Oct 8.4 00:08:03 44° ESE 00:08:03 44° ESE 07:36:36 10° E visible
31 Oct 8.1 02:30:45 65° SW 09:16:35 75° SSE 10:20:00 10° E visible
01 Nov 7.4 04:53:07 15° WSW 12:37:22 81° NNW 12:51:31 10° ENE visible
01 Nov 8.9 22:27:52 14° ESE 22:27:52 14° ESE 05:12:20 10° E visible
03 Nov 8.2 00:49:43 62° SE 00:49:43 62° SE 08:28:15 10° E visible
04 Nov 8.3 03:11:15 45° WSW 10:30:35 83° SSE 11:04:25 10° ENE visible
